• In Hungary
  • List of Countries
  • For 7 days
  • Water Temperature
  • Satellite Maps
  • Weather Map
  • News
  • Weather Widgets
  • user-avatar
    Login

    Hourly Weather Akka

    Today, 20 September, Wednesday

    Time Temperature Precipitation Wind Pressure Humidity
    00:00 +27°C° 0 mm 1 mps 758 mmHg 77%
    01:00 +26°C° 0 mm 1 mps 758 mmHg 78%
    02:00 +26°C° 0 mm 1 mps 758 mmHg 80%
    03:00 +26°C° 0 mm 1 mps 758 mmHg 82%
    04:00 +25°C° 0 mm 1 mps 758 mmHg 83%
    05:00 +25°C° 0 mm 1 mps 758 mmHg 84%
    06:00 +26°C° 0 mm 1 mps 758 mmHg 78%
    07:00 +27°C° 0 mm 2 mps 758 mmHg 71%
    08:00 +29°C° 0 mm 2 mps 758 mmHg 63%
    09:00 +30°C° 0 mm 2 mps 758 mmHg 58%
    10:00 +31°C° 0 mm 3 mps 759 mmHg 53%
    11:00 +33°C° 0 mm 3 mps 759 mmHg 48%
    12:00 +33°C° 0 mm 4 mps 758 mmHg 48%
    13:00 +33°C° 0 mm 4 mps 758 mmHg 48%
    14:00 +34°C° 0 mm 4 mps 758 mmHg 47%
    15:00 +33°C° 0 mm 4 mps 758 mmHg 51%
    16:00 +32°C° 0 mm 4 mps 758 mmHg 55%
    17:00 +30°C° 0 mm 3 mps 758 mmHg 59%
    18:00 +29°C° 0 mm 3 mps 758 mmHg 63%
    19:00 +29°C° 0 mm 2 mps 758 mmHg 67%
    20:00 +28°C° 0 mm 2 mps 759 mmHg 71%
    21:00 +28°C° 0 mm 2 mps 758 mmHg 73%
    22:00 +27°C° 0 mm 1 mps 758 mmHg 75%
    23:00 +27°C° 0 mm 1 mps 758 mmHg 77%

    Tomorrow, 21 September, Thursday

    Time Temperature Precipitation Wind Pressure Humidity
    00:00 +27°C° 0 mm 1 mps 758 mmHg 78%
    01:00 +26°C° 0 mm 1 mps 758 mmHg 80%
    02:00 +26°C° 0 mm 1 mps 758 mmHg 81%
    03:00 +26°C° 0 mm 2 mps 758 mmHg 82%
    04:00 +26°C° 0 mm 2 mps 758 mmHg 82%
    05:00 +25°C° 0 mm 2 mps 758 mmHg 82%
    06:00 +27°C° 0 mm 3 mps 758 mmHg 75%
    07:00 +28°C° 0 mm 3 mps 759 mmHg 69%
    08:00 +29°C° 0 mm 3 mps 759 mmHg 62%
    09:00 +32°C° 0 mm 4 mps 759 mmHg 56%
    10:00 +33°C° 0 mm 4 mps 759 mmHg 51%
    11:00 +34°C° 0 mm 4 mps 759 mmHg 45%
    12:00 +35°C° 0 mm 4 mps 758 mmHg 45%
    13:00 +35°C° 0 mm 5 mps 758 mmHg 45%
    14:00 +35°C° 0 mm 5 mps 758 mmHg 45%
    15:00 +34°C° 0 mm 4 mps 757 mmHg 50%
    16:00 +33°C° 0 mm 4 mps 757 mmHg 54%
    17:00 +31°C° 0 mm 3 mps 757 mmHg 59%
    18:00 +30°C° 0 mm 3 mps 757 mmHg 64%
    19:00 +29°C° 0 mm 2 mps 758 mmHg 69%
    20:00 +29°C° 0 mm 2 mps 758 mmHg 75%
    21:00 +28°C° 0 mm 2 mps 758 mmHg 77%
    22:00 +28°C° 0 mm 2 mps 758 mmHg 79%
    23:00 +27°C° 0 mm 2 mps 758 mmHg 81%

    Day after tomorrow, 22 September, Friday

    Time Temperature Precipitation Wind Pressure Humidity
    00:00 +27°C° 0 mm 2 mps 758 mmHg 82%
    01:00 +27°C° 0 mm 2 mps 758 mmHg 83%
    02:00 +27°C° 0 mm 2 mps 758 mmHg 84%
    03:00 +27°C° 0 mm 2 mps 758 mmHg 83%
    04:00 +27°C° 0 mm 3 mps 759 mmHg 83%
    05:00 +27°C° 0 mm 3 mps 759 mmHg 83%
    06:00 +28°C° 0 mm 3 mps 759 mmHg 77%
    07:00 +29°C° 0 mm 3 mps 759 mmHg 71%
    08:00 +30°C° 0 mm 3 mps 760 mmHg 65%
    09:00 +31°C° 0 mm 3 mps 760 mmHg 59%
    10:00 +33°C° 0 mm 4 mps 760 mmHg 52%
    11:00 +35°C° 0 mm 4 mps 760 mmHg 46%
    12:00 +34°C° 0 mm 5 mps 759 mmHg 47%
    13:00 +34°C° 0 mm 5 mps 759 mmHg 48%
    14:00 +34°C° 0 mm 5 mps 759 mmHg 49%
    15:00 +33°C° 0 mm 5 mps 759 mmHg 52%
    16:00 +32°C° 0 mm 5 mps 759 mmHg 56%
    17:00 +30°C° 0 mm 4 mps 759 mmHg 60%
    18:00 +29°C° 0 mm 4 mps 759 mmHg 63%
    19:00 +28°C° 0 mm 3 mps 760 mmHg 66%
    20:00 +27°C° 0 mm 3 mps 760 mmHg 69%
    21:00 +27°C° 0 mm 2 mps 760 mmHg 70%
    22:00 +27°C° 0 mm 2 mps 760 mmHg 71%
    23:00 +26°C° 0 mm 2 mps 760 mmHg 72%

    23 September, Saturday

    Time Temperature Precipitation Wind Pressure Humidity
    00:00 +26°C° 0 mm 2 mps 760 mmHg 72%
    01:00 +26°C° 0 mm 2 mps 760 mmHg 73%
    02:00 +25°C° 0 mm 2 mps 760 mmHg 73%
    03:00 +25°C° 0 mm 2 mps 760 mmHg 73%
    04:00 +25°C° 0 mm 2 mps 760 mmHg 73%
    05:00 +25°C° 0 mm 2 mps 760 mmHg 73%
    06:00 +26°C° 0 mm 2 mps 761 mmHg 67%
    07:00 +27°C° 0 mm 2 mps 761 mmHg 61%
    08:00 +28°C° 0 mm 2 mps 761 mmHg 54%
    09:00 +29°C° 0 mm 2 mps 761 mmHg 49%
    10:00 +30°C° 0 mm 3 mps 761 mmHg 44%
    11:00 +33°C° 0 mm 3 mps 761 mmHg 39%
    12:00 +33°C° 0 mm 3 mps 760 mmHg 39%
    13:00 +33°C° 0 mm 4 mps 760 mmHg 39%
    14:00 +33°C° 0 mm 4 mps 759 mmHg 39%
    15:00 +32°C° 0 mm 4 mps 759 mmHg 43%
    16:00 +30°C° 0 mm 4 mps 759 mmHg 46%
    17:00 +29°C° 0 mm 4 mps 759 mmHg 50%
    18:00 +29°C° 0 mm 3 mps 759 mmHg 53%
    19:00 +28°C° 0 mm 3 mps 760 mmHg 57%
    20:00 +27°C° 0 mm 2 mps 760 mmHg 60%
    21:00 +26°C° 0 mm 2 mps 760 mmHg 62%
    22:00 +26°C° 0 mm 2 mps 760 mmHg 63%
    23:00 +26°C° 0 mm 2 mps 759 mmHg 65%

    24 September, Sunday

    Time Temperature Precipitation Wind Pressure Humidity
    00:00 +25°C° 0 mm 2 mps 759 mmHg 65%
    01:00 +25°C° 0 mm 2 mps 759 mmHg 66%
    02:00 +25°C° 0 mm 2 mps 759 mmHg 67%
    03:00 +25°C° 0 mm 1 mps 759 mmHg 68%
    04:00 +25°C° 0 mm 1 mps 759 mmHg 68%
    05:00 +24°C° 0 mm 1 mps 759 mmHg 69%
    06:00 +26°C° 0 mm 1 mps 759 mmHg 62%
    07:00 +27°C° 0 mm 2 mps 759 mmHg 56%
    08:00 +29°C° 0 mm 2 mps 759 mmHg 49%
    09:00 +30°C° 0 mm 2 mps 759 mmHg 45%
    10:00 +33°C° 0 mm 3 mps 759 mmHg 40%
    11:00 +34°C° 0 mm 3 mps 758 mmHg 36%
    12:00 +34°C° 0 mm 4 mps 758 mmHg 37%
    13:00 +34°C° 0 mm 4 mps 758 mmHg 39%
    14:00 +34°C° 0 mm 5 mps 757 mmHg 41%
    15:00 +33°C° 0 mm 5 mps 757 mmHg 46%
    16:00 +32°C° 0 mm 4 mps 757 mmHg 51%
    17:00 +30°C° 0 mm 4 mps 757 mmHg 55%
    18:00 +29°C° 0 mm 4 mps 758 mmHg 58%
    19:00 +28°C° 0 mm 3 mps 758 mmHg 61%
    20:00 +27°C° 0 mm 3 mps 758 mmHg 64%
    21:00 +27°C° 0 mm 2 mps 758 mmHg 64%
    22:00 +27°C° 0 mm 2 mps 758 mmHg 65%
    23:00 +26°C° 0 mm 2 mps 758 mmHg 65%

    25 September, Monday

    Time Temperature Precipitation Wind Pressure Humidity
    00:00 +26°C° 0 mm 2 mps 758 mmHg 66%
    01:00 +26°C° 0 mm 2 mps 758 mmHg 66%
    02:00 +26°C° 0 mm 2 mps 758 mmHg 67%
    03:00 +25°C° 0 mm 2 mps 758 mmHg 68%
    04:00 +25°C° 0 mm 1 mps 758 mmHg 68%
    05:00 +25°C° 0 mm 1 mps 758 mmHg 69%
    06:00 +26°C° 0 mm 1 mps 759 mmHg 64%
    07:00 +27°C° 0 mm 1 mps 759 mmHg 59%
    08:00 +28°C° 0 mm 1 mps 759 mmHg 54%
    09:00 +30°C° 0 mm 2 mps 759 mmHg 50%
    10:00 +31°C° 0 mm 2 mps 759 mmHg 45%
    11:00 +33°C° 0 mm 3 mps 759 mmHg 41%
    12:00 +33°C° 0 mm 3 mps 759 mmHg 42%
    13:00 +34°C° 0 mm 4 mps 758 mmHg 43%
    14:00 +34°C° 0 mm 4 mps 758 mmHg 43%
    15:00 +33°C° 0 mm 4 mps 758 mmHg 48%
    16:00 +31°C° 0 mm 3 mps 758 mmHg 52%
    17:00 +30°C° 0 mm 3 mps 758 mmHg 56%
    18:00 +29°C° 0 mm 3 mps 759 mmHg 59%
    19:00 +28°C° 0 mm 3 mps 759 mmHg 62%
    20:00 +27°C° 0 mm 2 mps 759 mmHg 65%
    21:00 +27°C° 0 mm 2 mps 759 mmHg 67%
    22:00 +27°C° 0 mm 2 mps 759 mmHg 69%
    23:00 +26°C° 0 mm 2 mps 759 mmHg 70%
    Show more